Eufaula, AL

3:08 AM CST on February 21, 2017 (GMT -0600)
Weedon

Weather History for KEUF - October, 2011

Change the Weather History Date:

Tuesday, October 11, 2011

  Actual Average (KLSF) Record (KLSF)
Temperature  
Mean Temperature 67 °F -  
Max Temperature 70 °F 76 °F 89 °F (2014)
Min Temperature 64 °F 53 °F 37 °F (2000)
Cooling Degree Days 2    
Growing Degree Days 17 (Base 50)    
Moisture  
Dew Point 63 °F    
Average Humidity 87    
Maximum Humidity 90    
Minimum Humidity 78    
Precipitation  
Precipitation 0.24 in - - ()
Sea Level Pressure  
Sea Level Pressure 29.82 in    
Wind  
Wind Speed 6 mph (NNE)    
Max Wind Speed 9 mph    
Max Gust Speed -    
Visibility 6 miles    
Events Rain    
Averages and records for this station are not official NWS values.
T = Trace of Precipitation, MM = Missing Value Source: NWS Daily Summary

Daily Weather History Graph

Daily Weather History Graph

Search for Another Location

Airport or City:

Trip Planner

Search our weather history database for the weather conditions in past years. The results will help you decide how hot, cold, wet, or windy it might be!

Date:

Astronomy

Oct. 11, 2011 Rise Set
Actual Time 6:40 AM CDT 6:13 PM CDT
Civil Twilight 6:16 AM CDT 6:37 PM CDT
Nautical Twilight 5:48 AM CDT 7:05 PM CDT
Astronomical Twilight 5:19 AM CDT 7:34 PM CDT
Moon 5:48 PM CDT (10/11) 6:16 AM CDT (10/11)
Length of Visible Light 12h 21m
Length of Day
11h 32m
Full, 100% of the Moon is Illuminated
Oct 11
Full
Oct 11
Full
Oct 19
Last Quarter
Oct 26
New
Nov 2
First Quarter

Hourly Weather History & Observations

Time (CDT) Temp. Dew Point Humidity Pressure Visibility Wind Dir Wind Speed Gust Speed Precip Events Conditions
12:58 AM 69.1 °F 62.1 °F 78% 29.83 in 10.0 mi NE 9.2 mph - N/A   Overcast
1:58 AM 68.0 °F 62.1 °F 81% 29.81 in 10.0 mi NE 9.2 mph - N/A   Overcast
2:09 AM 68.0 °F 62.1 °F 81% 29.81 in 10.0 mi NE 9.2 mph - N/A   Overcast
2:58 AM 68.0 °F 62.1 °F 81% 29.80 in 10.0 mi NE 6.9 mph - N/A   Overcast
3:58 AM 68.0 °F 62.1 °F 81% 29.80 in 10.0 mi Variable 4.6 mph - N/A   Overcast
4:58 AM 66.9 °F 62.1 °F 84% 29.81 in 8.0 mi Variable 4.6 mph - N/A   Overcast
5:37 AM 66.0 °F 63.0 °F 90% 29.82 in 4.0 mi North 4.6 mph - 0.03 in Rain Light Rain
5:43 AM 66.0 °F 63.0 °F 90% 29.82 in 7.0 mi North 3.5 mph - 0.03 in Rain Light Rain
6:02 AM 66.0 °F 63.0 °F 90% 29.83 in 7.0 mi Calm Calm - N/A   Overcast
6:58 AM 66.0 °F 63.0 °F 90% 29.83 in 3.0 mi Variable 3.5 mph - 0.02 in Rain Light Rain
7:20 AM 66.0 °F 63.0 °F 90% 29.84 in 1.8 mi Variable 3.5 mph - 0.04 in Rain Heavy Rain
7:46 AM 66.9 °F 64.0 °F 90% 29.85 in 2.0 mi North 3.5 mph - 0.10 in Rain Light Rain
7:58 AM 66.9 °F 64.0 °F 90% 29.84 in 2.5 mi NNE 4.6 mph - 0.11 in Rain Light Rain
8:06 AM 66.9 °F 64.0 °F 90% 29.85 in 3.0 mi North 5.8 mph - 0.00 in Rain Light Rain
8:58 AM 66.9 °F 64.0 °F 90% 29.85 in 10.0 mi Variable 6.9 mph - 0.01 in   Overcast
9:37 AM 68.0 °F 64.0 °F 87% 29.85 in 10.0 mi Variable 6.9 mph - 0.00 in   Overcast
10:58 AM 68.0 °F 63.0 °F 84% 29.85 in 10.0 mi NE 9.2 mph - N/A   Overcast
11:58 AM 70.0 °F 63.0 °F 78% 29.83 in 10.0 mi NE 5.8 mph - N/A   Overcast
12:58 PM 69.1 °F 63.0 °F 81% 29.82 in 10.0 mi Variable 6.9 mph - N/A   Overcast
1:58 PM 68.0 °F 63.0 °F 84% 29.81 in 2.5 mi Variable 6.9 mph - 0.00 in Rain Light Rain
2:16 PM 68.0 °F 64.0 °F 87% 29.82 in 4.0 mi NE 4.6 mph - 0.01 in Rain Light Rain
2:58 PM 68.0 °F 64.0 °F 87% 29.81 in 5.0 mi Variable 3.5 mph - 0.01 in Rain Light Rain
3:11 PM 66.9 °F 63.0 °F 87% 29.81 in 10.0 mi Variable 5.8 mph - 0.00 in   Overcast
3:26 PM 66.9 °F 63.0 °F 87% 29.81 in 1.8 mi NE 8.1 mph - 0.01 in Rain Rain
3:44 PM 66.9 °F 63.0 °F 87% 29.82 in 3.0 mi NNE 5.8 mph - 0.03 in Rain Light Rain
3:54 PM 66.9 °F 63.0 °F 87% 29.82 in 2.0 mi NNE 3.5 mph - 0.04 in Rain Rain
3:58 PM 66.9 °F 63.0 °F 87% 29.81 in 1.5 mi North 4.6 mph - 0.05 in Rain Rain
4:04 PM 66.9 °F 64.0 °F 90% 29.81 in 1.5 mi Variable 3.5 mph - 0.01 in Rain Light Rain
4:21 PM 66.9 °F 63.0 °F 87% 29.82 in 2.5 mi NNE 4.6 mph - 0.02 in Rain Light Rain
4:32 PM 66.9 °F 63.0 °F 87% 29.82 in 2.5 mi Variable 4.6 mph - 0.03 in Rain Light Rain
4:38 PM 66.9 °F 63.0 °F 87% 29.82 in 2.5 mi Calm Calm - 0.03 in Rain Light Rain
4:58 PM 66.9 °F 63.0 °F 87% 29.81 in 5.0 mi Variable 4.6 mph - 0.03 in Rain Light Rain
5:20 PM - - N/A% - - North - - N/A   Unknown
5:58 PM 66.0 °F 63.0 °F 90% 29.81 in 3.0 mi NNE 5.8 mph - 0.01 in Rain Light Rain
6:58 PM 64.9 °F 62.1 °F 90% 29.82 in 5.0 mi Variable 3.5 mph - 0.00 in   Overcast
7:58 PM 64.9 °F 62.1 °F 90% 29.83 in 9.0 mi North 3.5 mph - N/A   Overcast
8:58 PM 64.9 °F 62.1 °F 90% 29.84 in 6.0 mi North 4.6 mph - 0.00 in   Overcast
10:58 PM 64.0 °F 61.0 °F 90% 29.86 in 10.0 mi Variable 3.5 mph - N/A   Overcast
11:58 PM 64.0 °F 60.1 °F 87% 29.83 in 10.0 mi North 3.5 mph - N/A   Overcast